| time (UTC) | temp F | wind direction | speed MPH | gust MPH | rain 1hr in | rain 24hr in | rain mn in | humidity % | barometer mb |
| 20260902143536 | 73 | 113 | 3.0 | 5.0 | 0.00 | 0.12 | 0.11 | 81 | 1012.4 |
| 20260902142515 | 72 | 90 | 5.0 | 9.0 | 0.00 | 0.12 | 0.11 | 81 | 1012.2 |
| 20260902141515 | 71 | 90 | 5.0 | 8.0 | 0.00 | 0.12 | 0.11 | 83 | 1012.3 |
| 20260902140515 | 71 | 113 | 3.0 | 5.0 | 0.00 | 0.12 | 0.11 | 84 | 1012.4 |
| 20260902135515 | 70 | 113 | 4.0 | 7.0 | 0.00 | 0.12 | 0.11 | 85 | 1012.4 |
| 20260902134516 | 69 | 135 | 3.0 | 8.0 | 0.00 | 0.12 | 0.11 | 86 | 1012.6 |
| 20260902133516 | 69 | 135 | 3.0 | 6.0 | 0.00 | 0.12 | 0.11 | 86 | 1012.6 |
| 20260902132515 | 68 | 113 | 2.0 | 5.0 | 0.00 | 0.12 | 0.11 | 87 | 1012.6 |
| 20260902131515 | 67 | 113 | 2.0 | 4.0 | 0.00 | 0.12 | 0.11 | 89 | 1012.5 |
| 20260902130515 | 67 | 90 | 3.0 | 5.0 | 0.00 | 0.12 | 0.11 | 90 | 1012.4 |
| 20260902125515 | 67 | 90 | 1.0 | 5.0 | 0.00 | 0.12 | 0.11 | 90 | 1012.8 |
| 20260902124516 | 66 | 113 | 2.0 | 3.0 | 0.00 | 0.12 | 0.11 | 91 | 1012.8 |
| 20260902123515 | 66 | 90 | 1.0 | 2.0 | 0.00 | 0.12 | 0.11 | 92 | 1012.8 |
| 20260902122535 | 65 | 0 | 2.0 | 3.0 | 0.00 | 0.12 | 0.11 | 92 | 1012.7 |
| 20260902121535 | 65 | 0 | 3.0 | 4.0 | 0.00 | 0.12 | 0.11 | 92 | 1012.3 |
| 20260902120515 | 65 | 0 | 1.0 | 3.0 | 0.00 | 0.12 | 0.11 | 92 | 1012.4 |
| 20260902115515 | 66 | 0 | 1.0 | 3.0 | 0.00 | 0.12 | 0.11 | 92 | 1012.4 |
| 20260902114515 | 66 | 0 | 3.0 | 4.0 | 0.00 | 0.12 | 0.11 | 92 | 1012.2 |
| 20260902113515 | 66 | 0 | 1.0 | 2.0 | 0.00 | 0.12 | 0.11 | 92 | 1012.3 |
| 20260902112515 | 66 | 0 | 3.0 | 5.0 | 0.00 | 0.12 | 0.11 | 92 | 1012.2 |
| 20260902111515 | 66 | 0 | 2.0 | 4.0 | 0.00 | 0.12 | 0.11 | 92 | 1012.3 |
| 20260902110517 | 66 | 0 | 3.0 | 6.0 | 0.00 | 0.12 | 0.11 | 93 | 1012.4 |
| 20260902105537 | 67 | 0 | 3.0 | 4.0 | 0.00 | 0.12 | 0.11 | 93 | 1012.9 |
| 20260902104517 | 67 | 0 | 5.0 | 9.0 | 0.00 | 0.12 | 0.11 | 93 | 1012.7 |
| 20260902103517 | 66 | 180 | 3.0 | 6.0 | 0.00 | 0.12 | 0.11 | 93 | 1012.8 |
| 20260902102537 | 66 | 0.0 | 1.0 | 0.00 | 0.12 | 0.11 | 93 | 1013.8 | |
| 20260902101517 | 66 | 0 | 1.0 | 3.0 | 0.00 | 0.12 | 0.11 | 93 | 1013.8 |
| 20260902100517 | 66 | 0 | 1.0 | 2.0 | 0.00 | 0.12 | 0.11 | 93 | 1013.9 |
| 20260902095517 | 65 | 0 | 1.0 | 1.0 | 0.00 | 0.12 | 0.11 | 93 | 1013.8 |
| 20260902094517 | 65 | 0 | 1.0 | 2.0 | 0.00 | 0.12 | 0.11 | 92 | 1013.7 |
| 20260902093517 | 65 | 0.0 | 2.0 | 0.00 | 0.12 | 0.11 | 92 | 1013.5 | |
| 20260902092517 | 65 | 0.0 | 1.0 | 0.00 | 0.12 | 0.11 | 92 | 1013.3 | |
| 20260902091517 | 66 | 0 | 1.0 | 2.0 | 0.00 | 0.12 | 0.11 | 92 | 1013.4 |
| 20260902090537 | 66 | 0 | 1.0 | 1.0 | 0.00 | 0.12 | 0.11 | 92 | 1013.0 |
| 20260902085517 | 66 | 0 | 1.0 | 2.0 | 0.00 | 0.12 | 0.11 | 92 | 1012.8 |
| 20260902084517 | 66 | 0.0 | 2.0 | 0.00 | 0.12 | 0.11 | 91 | 1012.6 | |
| 20260902083537 | 66 | 0.0 | 1.0 | 0.00 | 0.12 | 0.11 | 91 | 1012.8 | |
| 20260902082517 | 66 | 0.0 | 1.0 | 0.00 | 0.12 | 0.11 | 91 | 1012.8 | |
| 20260902081517 | 66 | 0 | 1.0 | 5.0 | 0.01 | 0.12 | 0.11 | 91 | 1012.7 |
| 20260902080517 | 66 | 0 | 5.0 | 7.0 | 0.01 | 0.12 | 0.11 | 91 | 1013.1 |
| 20260902075517 | 67 | 0 | 3.0 | 7.0 | 0.02 | 0.12 | 0.11 | 90 | 1012.1 |
| 20260902074517 | 67 | 0 | 6.0 | 10.0 | 0.03 | 0.12 | 0.11 | 90 | 1011.5 |
| 20260902073517 | 67 | 0 | 5.0 | 7.0 | 0.03 | 0.12 | 0.11 | 90 | 1011.4 |
| 20260902072517 | 67 | 0 | 3.0 | 7.0 | 0.04 | 0.12 | 0.11 | 90 | 1011.9 |
| 20260902071517 | 67 | 0 | 7.0 | 10.0 | 0.04 | 0.11 | 0.10 | 90 | 1010.9 |
| 20260902070517 | 68 | 0 | 7.0 | 11.0 | 0.04 | 0.11 | 0.10 | 91 | 1011.4 |
| 20260902065517 | 68 | 0 | 5.0 | 8.0 | 0.04 | 0.10 | 0.09 | 91 | 1011.8 |
| 20260902064517 | 68 | 0 | 4.0 | 7.0 | 0.07 | 0.09 | 0.08 | 91 | 1012.7 |
| 20260902063557 | 68 | 0 | 5.0 | 8.0 | 0.08 | 0.09 | 0.08 | 91 | 1013.0 |
| 20260902062517 | 68 | 0 | 4.0 | 7.0 | 0.07 | 0.08 | 0.07 | 90 | 1013.2 |
| 20260902061517 | 69 | 0 | 4.0 | 7.0 | 0.06 | 0.07 | 0.06 | 90 | 1013.5 |
| 20260902060517 | 69 | 0 | 4.0 | 7.0 | 0.06 | 0.07 | 0.06 | 90 | 1014.7 |
| 20260902055516 | 70 | 0 | 4.0 | 10.0 | 0.05 | 0.06 | 0.05 | 89 | 1016.0 |
| 20260902054517 | 70 | 0 | 15.0 | 30.0 | 0.01 | 0.02 | 0.01 | 88 | 1017.1 |
| 20260902053516 | 69 | 0 | 5.0 | 8.0 | 0.01 | 0.01 | 0.00 | 87 | 1015.1 |
| 20260902052517 | 70 | 0 | 5.0 | 7.0 | 0.01 | 0.01 | 0.00 | 85 | 1013.2 |
| 20260902051517 | 70 | 0 | 3.0 | 6.0 | 0.01 | 0.01 | 0.00 | 87 | 1012.9 |
| 20260902050517 | 71 | 0 | 7.0 | 10.0 | 0.01 | 0.01 | 0.00 | 88 | 1012.5 |
| 20260902045515 | 70 | 0 | 5.0 | 8.0 | 0.01 | 0.01 | 0.01 | 90 | 1012.8 |
| 20260902044555 | 70 | 0 | 1.0 | 3.0 | 0.01 | 0.01 | 0.01 | 90 | 1014.1 |
| 20260902043515 | 70 | 0 | 4.0 | 6.0 | 0.00 | 0.00 | 0.00 | 90 | 1014.5 |
| 20260902042515 | 70 | 0 | 3.0 | 4.0 | 0.00 | 0.00 | 0.00 | 88 | 1014.4 |
| 20260902041515 | 70 | 0 | 1.0 | 3.0 | 0.00 | 0.00 | 0.00 | 88 | 1013.2 |
| 20260902040515 | 69 | 0 | 1.0 | 3.0 | 0.00 | 0.00 | 0.00 | 90 | 1012.7 |
| 20260902035517 | 69 | 0.0 | 2.0 | 0.00 | 0.00 | 0.00 | 90 | 1012.9 | |
| 20260902034517 | 69 | 0 | 1.0 | 2.0 | 0.00 | 0.00 | 0.00 | 89 | 1013.0 |
| 20260902033517 | 69 | 0 | 2.0 | 3.0 | 0.00 | 0.00 | 0.00 | 90 | 1012.8 |
| 20260902032537 | 69 | 0.0 | 2.0 | 0.00 | 0.00 | 0.00 | 90 | 1013.0 | |
| 20260902031517 | 69 | 0 | 1.0 | 1.0 | 0.00 | 0.00 | 0.00 | 89 | 1013.4 |
| 20260902030517 | 69 | 0.0 | 2.0 | 0.00 | 0.00 | 0.00 | 89 | 1013.7 | |
| 20260902025537 | 69 | 0.0 | 2.0 | 0.00 | 0.00 | 0.00 | 89 | 1013.7 | |
| 20260902024517 | 70 | 0.0 | 0.0 | 0.00 | 0.00 | 0.00 | 89 | 1013.6 | |
| 20260902023537 | 70 | 0.0 | 2.0 | 0.00 | 0.00 | 0.00 | 88 | 1013.3 | |
| 20260902022637 | 71 | 0.0 | 2.0 | 0.00 | 0.00 | 0.00 | 88 | 1013.1 | |
| 20260902021537 | 71 | 0.0 | 1.0 | 0.00 | 0.00 | 0.00 | 87 | 1013.2 | |
| 20260902020517 | 72 | 0 | 1.0 | 3.0 | 0.00 | 0.00 | 0.00 | 88 | 1013.0 |
| 20260902015517 | 71 | 90 | 1.0 | 2.0 | 0.00 | 0.00 | 0.00 | 88 | 1012.8 |
| 20260902014517 | 71 | 0.0 | 2.0 | 0.00 | 0.00 | 0.00 | 87 | 1013.0 | |
| 20260902013557 | 72 | 45 | 1.0 | 1.0 | 0.00 | 0.00 | 0.00 | 87 | 1012.9 |
| 20260902012537 | 72 | 0.0 | 2.0 | 0.00 | 0.00 | 0.00 | 87 | 1012.7 | |
| 20260902011517 | 73 | 0.0 | 1.0 | 0.00 | 0.00 | 0.00 | 87 | 1012.6 | |
| 20260902010517 | 73 | 0.0 | 0.0 | 0.00 | 0.00 | 0.00 | 86 | 1012.7 | |
| 20260902005517 | 74 | 0.0 | 1.0 | 0.00 | 0.00 | 0.00 | 85 | 1012.5 | |
| 20260902004517 | 75 | 0.0 | 2.0 | 0.00 | 0.00 | 0.00 | 85 | 1012.8 | |
| 20260902003537 | 76 | 0 | 1.0 | 1.0 | 0.00 | 0.00 | 0.00 | 83 | 1012.8 |
| 20260902002517 | 77 | 23 | 1.0 | 1.0 | 0.00 | 0.00 | 0.00 | 81 | 1012.9 |
| 20260902001517 | 78 | 23 | 1.0 | 1.0 | 0.00 | 0.00 | 0.00 | 81 | 1012.9 |
| 20260902000617 | 78 | 23 | 1.0 | 2.0 | 0.00 | 0.00 | 0.00 | 81 | 1013.3 |
| 20260901235517 | 79 | 23 | 2.0 | 2.0 | 0.00 | 0.00 | 0.00 | 80 | 1013.4 |
| 20260901234537 | 80 | 23 | 1.0 | 2.0 | 0.00 | 0.00 | 0.00 | 79 | 1013.3 |
| 20260901233517 | 80 | 23 | 1.0 | 2.0 | 0.00 | 0.00 | 0.00 | 78 | 1013.5 |
| 20260901232516 | 80 | 23 | 2.0 | 2.0 | 0.00 | 0.00 | 0.00 | 77 | 1013.4 |
| 20260901231537 | 80 | 0.0 | 2.0 | 0.00 | 0.00 | 0.00 | 78 | 1013.4 | |
| 20260901230537 | 81 | 23 | 1.0 | 2.0 | 0.00 | 0.00 | 0.00 | 77 | 1013.3 |
| 20260901225517 | 81 | 23 | 1.0 | 2.0 | 0.00 | 0.00 | 0.00 | 75 | 1013.5 |
| 20260901224516 | 81 | 45 | 1.0 | 2.0 | 0.00 | 0.00 | 0.00 | 73 | 1013.4 |
| 20260901223517 | 82 | 0.0 | 2.0 | 0.00 | 0.00 | 0.00 | 74 | 1013.4 | |
| 20260901222516 | 82 | 0.0 | 2.0 | 0.00 | 0.00 | 0.00 | 73 | 1013.5 | |
| 20260901221516 | 81 | 0.0 | 2.0 | 0.00 | 0.00 | 0.00 | 73 | 1013.3 | |
| 20260901220516 | 81 | 45 | 1.0 | 1.0 | 0.00 | 0.00 | 0.00 | 73 | 1013.1 |
| 20260901215516 | 82 | 0.0 | 1.0 | 0.00 | 0.00 | 0.00 | 74 | 1013.2 | |
| 20260901214517 | 82 | 0.0 | 1.0 | 0.00 | 0.00 | 0.00 | 73 | 1013.2 | |
| 20260901213517 | 83 | 45 | 1.0 | 2.0 | 0.00 | 0.00 | 0.00 | 68 | 1013.4 |
| 20260901212517 | 83 | 0.0 | 2.0 | 0.00 | 0.00 | 0.00 | 66 | 1013.5 | |
| 20260901211516 | 83 | 0.0 | 2.0 | 0.00 | 0.00 | 0.00 | 66 | 1013.5 | |
| 20260901210536 | 83 | 45 | 1.0 | 2.0 | 0.00 | 0.00 | 0.00 | 68 | 1013.4 |
| 20260901205516 | 83 | 0.0 | 2.0 | 0.00 | 0.00 | 0.00 | 69 | 1013.5 | |
| 20260901204537 | 82 | 45 | 2.0 | 3.0 | 0.00 | 0.00 | 0.00 | 69 | 1013.5 |
| 20260901203536 | 81 | 68 | 1.0 | 2.0 | 0.00 | 0.00 | 0.00 | 72 | 1013.5 |
| 20260901202516 | 81 | 68 | 1.0 | 2.0 | 0.00 | 0.00 | 0.00 | 75 | 1013.6 |
| 20260901201516 | 81 | 0.0 | 2.0 | 0.00 | 0.00 | 0.00 | 73 | 1013.6 | |
| 20260901200536 | 81 | 23 | 2.0 | 3.0 | 0.00 | 0.00 | 0.00 | 72 | 1013.6 |
| 20260901195516 | 82 | 0 | 2.0 | 4.0 | 0.00 | 0.00 | 0.00 | 71 | 1013.8 |
| 20260901194516 | 82 | 0.0 | 0.0 | 0.00 | 0.00 | 0.00 | 67 | 1013.7 | |
| 20260901193536 | 83 | 0.0 | 0.0 | 0.00 | 0.00 | 0.00 | 65 | 1013.7 | |
| 20260901192516 | 83 | 0.0 | 0.0 | 0.00 | 0.00 | 0.00 | 63 | 1013.7 | |
| 20260901191516 | 83 | 0.0 | 0.0 | 0.00 | 0.00 | 0.00 | 62 | 1014.0 | |
| 20260901190516 | 82 | 0.0 | 0.0 | 0.00 | 0.00 | 0.00 | 64 | 1014.1 | |
| 20260901185516 | 83 | 0.0 | 0.0 | 0.00 | 0.00 | 0.00 | 65 | 1014.4 | |
| 20260901184516 | 83 | 0.0 | 0.0 | 0.00 | 0.00 | 0.00 | 63 | 1014.4 | |
| 20260901183516 | 83 | 225 | 1.0 | 2.0 | 0.00 | 0.00 | 0.00 | 64 | 1014.6 |
| 20260901182516 | 83 | 0.0 | 2.0 | 0.00 | 0.00 | 0.00 | 62 | 1014.5 | |
| 20260901181516 | 83 | 180 | 1.0 | 3.0 | 0.00 | 0.00 | 0.00 | 63 | 1014.4 |
| 20260901180516 | 83 | 68 | 3.0 | 6.0 | 0.00 | 0.00 | 0.00 | 61 | 1014.0 |
| 20260901175516 | 83 | 90 | 2.0 | 3.0 | 0.00 | 0.00 | 0.00 | 63 | 1014.3 |
| 20260901174516 | 83 | 0 | 2.0 | 3.0 | 0.00 | 0.00 | 0.00 | 64 | 1014.7 |
| 20260901173536 | 83 | 68 | 2.0 | 4.0 | 0.00 | 0.00 | 0.00 | 62 | 1014.8 |
| 20260901172516 | 83 | 45 | 1.0 | 3.0 | 0.00 | 0.00 | 0.00 | 62 | 1014.8 |
| 20260901171556 | 83 | 0 | 2.0 | 4.0 | 0.00 | 0.00 | 0.00 | 63 | 1014.8 |
| 20260901170556 | 83 | 315 | 1.0 | 3.0 | 0.00 | 0.00 | 0.00 | 66 | 1014.9 |
| 20260901165516 | 83 | 180 | 2.0 | 3.0 | 0.00 | 0.00 | 0.00 | 64 | 1014.9 |
| 20260901164516 | 82 | 338 | 1.0 | 3.0 | 0.00 | 0.00 | 0.00 | 65 | 1014.9 |
| 20260901163516 | 82 | 315 | 1.0 | 2.0 | 0.00 | 0.00 | 0.00 | 65 | 1015.0 |
| 20260901162516 | 81 | 0.0 | 2.0 | 0.00 | 0.00 | 0.00 | 67 | 1015.0 | |
| 20260901161516 | 80 | 225 | 1.0 | 3.0 | 0.00 | 0.00 | 0.00 | 69 | 1015.2 |
| 20260901160536 | 80 | 203 | 2.0 | 3.0 | 0.00 | 0.00 | 0.00 | 70 | 1015.2 |
| 20260901155516 | 79 | 0.0 | 2.0 | 0.00 | 0.00 | 0.00 | 70 | 1015.3 | |
| 20260901154516 | 78 | 0 | 1.0 | 3.0 | 0.00 | 0.00 | 0.00 | 72 | 1015.1 |
| 20260901153536 | 77 | 293 | 1.0 | 3.0 | 0.00 | 0.00 | 0.00 | 73 | 1015.1 |
| 20260901152516 | 77 | 248 | 1.0 | 2.0 | 0.00 | 0.00 | 0.00 | 75 | 1015.1 |
| 20260901151516 | 76 | 270 | 1.0 | 2.0 | 0.00 | 0.00 | 0.00 | 75 | 1015.2 |
| 20260901150516 | 75 | 293 | 1.0 | 2.0 | 0.00 | 0.00 | 0.00 | 79 | 1015.0 |
| 20260901145556 | 74 | 45 | 1.0 | 3.0 | 0.00 | 0.00 | 0.00 | 84 | 1015.1 |
| 20260901144536 | 73 | 45 | 2.0 | 3.0 | 0.00 | 0.00 | 0.00 | 85 | 1015.0 |